KKS-1 (KISEKI)

Satellite information

Favourite Embed

Satellite Type and Status

PAYLOADIN ORBIT

Key statistics

Satellite KKS-1 (KISEKI) at a glance.

Uptime

6009

Days in orbit

Revolutions

≈ 14.8

Per day

Orbit

SSO

Sun Synchronous Orbit

Inclination

98.1

Latest

Satellite identification and parameters

Extended collection of information and parameters for KKS-1 (KISEKI).

Object identification

Identified? True

Debris? False

Object name: KKS-1 (KISEKI)

International designator: 2009-002H

Object number (NORAD): 33499

Object ID (CCSDS): 33499

Country: JAPAN (JPN)

Current information (Y/N): Y

RCS size: SMALL

Orbital parameters

Period: 97.186 minutes

Inclination: 98.1187 deg

SMA: 7002.131 km

Apoapsis: 629.292 km

Periapsis: 618.7 km

RAAN: 100.2423 deg

Eccentricy: 0.0007564

Argument of periapsis: 339.1166 deg

Mean anomaly: 20.9736 deg

Mean motion: 14.81690204 rev/day

Mean motion (dot): 0.00001054 rev/day2

B* drag term: 0.00014082 1/REarth

Two-line elements (TLE)

Creation date: July 6, 2025, 10:46 p.m.

Reference frame: TEME

Reference center: EARTH

Epoch: July 6, 2025, 7:21 p.m. UTC

TLE line 0: 0 KKS-1 (KISEKI)

TLE line 1: 1 33499U 09002H 25187.80672128 .00001054 00000-0 14082-3 0 9994

TLE line 2: 2 33499 98.1187 100.2423 0007564 339.1166 20.9736 14.81690204885459

Live tracking on map

Real-time ground track for satellite KKS-1 (KISEKI).

In-orbit conjunctions

There are no conjunctions computed for KKS-1 (KISEKI), at the moment. Check back to stay up to date, as we update our databases every day.

Go to all conjunctions

Associated space launch

Japanese Earth observation satellite. Launched with 7 secondary payloads.

KKS-1 (KISEKI) was lifted into orbit during the mission ‘H-IIA 202 | GOSAT’, on board a H-IIA space rocket.

The launch took place on Jan. 23, 2009, 3:54 a.m. from Yoshinobu Launch Complex LP-1.

For more information about the launch, click the button.

Launch to space H-IIA 202 | GOSAT
H-IIA 202 | GOSAT

Agency: N/A

Status: Launch Successful

Launch date: Jan. 23, 2009, 3:54 a.m. UTC

Rocket: H-IIA

Launch pad: Yoshinobu Launch Complex LP-1

Location: Tanegashima Space Center, Japan

...

Latest news about this satellite

There are no fresh news available about this satellite. Check back as we update our databases every day.


Newsletter sign-up

Weekly statistics, charts and insights to help you stay on top of the space industry.